Powrót do katalogu

TIANHUI 4B

AktywnyNaukaPO
NORAD 50573·PAYLOAD·🇨🇳 China

Wystrzelony Dec 29, 2021 z Jiuquan Satellite Launch Center

Loading…

Następne Przeloty (najbliższe 24 godziny)

TLE

ŚwieżeSource: Space-Track

Epoka: Sep 14, 2026, 10:16 UTC

1 50573U 21134B   26257.42791234  .00004667  00000-0  89873-4 0  9997
2 50573  88.9684 309.9944 0010667  81.9150 278.3320 15.47560939263631

Śledź TIANHUI 4B w czasie rzeczywistym z AllMySat

Download on the App Store